Skip Page Navigation
NASA JPL Caltech
NASA Logo - Jet Propulsion Laboratory + View the NASA Portal
+ Center for Near-Earth Object Studies
JPL Home Earth Solar System Stars & Galaxies Technology
JPL Solar System Dynamics
BODIES ORBITS EPHEMERIDES TOOLS PHYSICAL DATA DISCOVERY FAQ SITE MAP
IMPORTANT: The SSD Announcement email list is now available. Major changes are coming in the near future, including possible hostname and/or URL changes. To be notified of such changes, subscribe to this email list.

Please visit this page for more details.


JPL Small-Body Database Browser
Search: [ help ]  
268009 (2004 JV48)
Classification: Main-belt Asteroid          SPK-ID: 2268009
Ephemeris | Orbit Diagram | Orbital Elements | Mission Design | Physical Parameters | Discovery Circumstances ]

[ show orbit diagram ]
Orbital Elements at Epoch 2458600.5 (2019-Apr-27.0) TDB
Reference: JPL 14 (heliocentric ecliptic J2000)
 Element Value Uncertainty (1-sigma)   Units 
e .0989362806043754 6.3631e-08  
a 2.397595280402028 2.0676e-08 au
q 2.160386120964446 1.5489e-07 au
i 6.992992812042648 5.1363e-06 deg
node 103.1863764804713 5.3971e-05 deg
peri 145.8473655174309 6.6233e-05 deg
M 356.1161296527197 3.3511e-05 deg
tp 2458615.129330868666
(2019-May-11.62933087)
0.00012615 TDB
period 1356.007961596239
3.71
1.754e-05
4.802e-08
d
yr
n .2654851668984468 3.4341e-09 deg/d
Q 2.634804439839609 2.2721e-08 au
  Orbit Determination Parameters
   # obs. used (total)      250  
   data-arc span      5578 days (15.27 yr)  
   first obs. used      2004-04-23  
   last obs. used      2019-08-01  
   planetary ephem.      DE431  
   SB-pert. ephem.      SB431-N16  
   condition code      0  
   norm. resid. RMS      .4766  
   source      ORB  
   producer      Otto Matic  
   solution date      2019-Sep-24 04:38:18  

Additional Information
 Earth MOID = 1.14962 au 
 Jupiter MOID = 2.39889 au 
 T_jup = 3.511 
[ show covariance matrix ]

Ephemeris | Orbit Diagram | Orbital Elements | Mission Design | Physical Parameters | Discovery Circumstances ]

Physical Parameter Table
Parameter Symbol Value Units Sigma Reference Notes
absolute magnitude H 16.8   n/a MPO433739  

268009 (2004 JV48)          Discovered 2004-May-13 by LONEOS at Anderson Mesa
Reference: 20110319/Numbers.arcLast Updated: 2011-03-23

Alternate Designations
 2004 JV48 = 2006 YF9 
Ephemeris | Orbit Diagram | Orbital Elements | Mission Design | Physical Parameters | Discovery Circumstances ]
ABOUT SSD CREDITS/AWARDS PRIVACY/COPYRIGHT GLOSSARY LINKS
FirstGov 2020-Jan-21 17:53 UT
(server date/time)  
NASA Home Page
Site Manager:   Ryan S. Park
Webmaster  Alan B. Chamberlin